Zurück zum Katalog

THOR ABLESTAR DEB

AktivLEO
NORAD 4028·DEBRIS·🇺🇸 United States

Gestartet Jun 29, 1961 von Cape Canaveral Space Force Station

Loading…

Nächste Überflüge (nächste 24 Stunden)

TLE

AktuellSource: Space-Track

Epoche: Sep 14, 2026, 13:15 UTC

1 04028U 61015JQ  26257.55244422  .00000899  00000-0  18258-3 0  9990
2 04028  66.7488  93.2076 0099144 284.1061  74.9052 14.63260542386895

Verfolge THOR ABLESTAR DEB in Echtzeit mit AllMySat

Download on the App Store